Regional Weather Roundup
Issued by NWS

Home | Current Version | Previous Version | Text Only | Print | Product List | Glossary On
Versions: 1 2 3 4 5 6 7 8 9 10 11 12 13 14 15 16 17 18 19 20 21 22 23 24 25 26 27 28 29 30 31 32 33 34 35 36 37 38 39 40 41 42 43 44 45 46 47 48 49 50
000
ASUS46 KSTO 260715
RWRCA

NORTHERN AND CENTRAL CA REGIONAL WEATHER ROUNDUP
NATIONAL WEATHER SERVICE SACRAMENTO CA
1200 AM PDT TUE SEP 26 2017

NOTE: FAIR INDICATES FEW OR NO CLOUDS BELOW 12,000 FEET WITH NO
SIGNIFICANT WEATHER AND/OR OBSTRUCTIONS TO VISIBILITY.

CAZ001-003-260800-
NORTHWEST AREA

CITY           SKY/WX    TMP DP  RH WIND       PRES   REMARKS
CRESCENT CITY  CLEAR     54  53  97 N7        30.01S
UKIAH          CLEAR     61  45  55 CALM      29.90S
$$

CAZ006-505>513-260800-
BAY AREA

CITY           SKY/WX    TMP DP  RH WIND       PRES   REMARKS
SANTA ROSA     CLEAR     58  45  62 CALM      29.83F
SAN RAFAEL     N/A       67  MM  MM MISG
NAPA           CLEAR     53  43  68 CALM      29.84S
CONCORD        CLEAR     67  42  40 S5        29.83F
OAKLAND CITY   N/A      MM  MM  MM MISG
OAKLAND        CLEAR     62  58  86 CALM      29.85S
SAN FRAN CITY  N/A       61  MM  76 MISG
SAN FRAN ARPT  CLEAR     62  52  69 W6        29.83F
LIVERMORE      CLEAR     62  40  44 CALM      29.84F
HAYWARD        CLEAR     63  43  48 NE3       29.84F
REDWOOD CITY   N/A       61  MM  51 MISG
MOFFETT ARPT   CLEAR     66  47  50 S5        29.84F
SAN JOSE ARPT  CLEAR     63  45  51 SE5       29.84F
$$
CAZ034-037-514>518-260800-
CENTRAL COAST

CITY           SKY/WX    TMP DP  RH WIND       PRES   REMARKS
WATSONVILLE    CLEAR     57  52  83 NW5       29.86F
SALINAS        CLEAR     58  48  69 CALM      29.86S
MONTEREY       CLEAR     61  55  81 CALM      29.86S
SAN LUIS OBISP CLEAR     57  48  72 NE8       29.84S
SANTA MARIA    CLEAR     56  44  64 CALM      29.84F
$$
CAZ015-016-260800-
NORTHERN SACRAMENTO VALLEY

CITY           SKY/WX    TMP DP  RH WIND       PRES   REMARKS
REDDING        CLEAR     70  40  33 NW5       29.91R
RED BLUFF      CLEAR     73  38  27 NW8       29.90R
OROVILLE       CLEAR     71  41  33 N6        29.86R
$$
CAZ016>018-260800-
SOUTHERN SACRAMENTO VALLEY

CITY           SKY/WX    TMP DP  RH WIND       PRES   REMARKS
AUBURN         CLEAR     66 -36   1 E5        29.89R
BEALE AFB      CLEAR     69  37  31 NE5       29.82R
LINCOLN        FAIR      55  39  54 CALM      29.82S
MARYSVILLE     CLEAR     60  43  53 CALM      29.84R
SAC INTL ARPT  CLEAR     62  44  51 NW7       29.82R
MATHER AIRPORT NOT AVBL
DOWNTOWN SAC   N/A       63  MM  MM MISG
SAC EXEC ARPT  CLEAR     61  46  57 CALM      29.81S
VACAVILLE      CLEAR     64  36  35 N3        29.83S
TRAVIS AFB     CLEAR     62  39  43 W7        29.80S
$$
CAZ019>021-260800-
SAN JOAQUIN VALLEY

CITY           SKY/WX    TMP DP  RH WIND       PRES   REMARKS
STOCKTON       CLEAR     63  41  44 CALM      29.81S
MODESTO        CLEAR     62  46  55 E6        29.81S
MERCED         CLEAR     58  42  55 SE3       29.83R
LEMOORE        CLEAR     64  33  31 W8        29.85S
FRESNO         CLEAR     66  44  45 E3        29.85S
HANFORD        CLEAR     59  52  77 CALM      29.85S
PORTERVILLE    CLEAR     62  40  44 E8        29.86F
BAKERSFIELD    CLEAR     70  37  29 E6        29.86S
$$
CAZ011-012-071-260800-
NORTHERN MOUNTAINS

CITY           SKY/WX    TMP DP  RH WIND       PRES   REMARKS
YREKA          CLEAR     57  41  55 N8        30.09S
MOUNT SHASTA   CLEAR     55  41  59 VRB3      30.10R
ALTURAS        CLEAR     44  33  65 NW3       30.12R
$$
CAZ011-012-071-260800-
SIERRA NEVADA MTNS

CITY           SKY/WX    TMP DP  RH WIND       PRES   REMARKS
BLUE CANYON    CLEAR     57  28  33 CALM      30.07S
TRUCKEE        CLEAR     32  28  86 S3        30.14S
TAHOE VLY ARPT CLEAR     39  28  64 S5        30.12F
MAMMOTH LAKES  FAIR      38  22  51 W10       30.18S WCI  32
$$



USA.gov is the U.S. government's official web portal to all federal, state and local government web resources and services.